Regional Weather Roundup
Issued by NWS

Home | Current Version | Previous Version | Text Only | Print | Product List | Glossary Off
Versions: 1 2 3 4 5 6 7 8 9 10 11 12 13 14 15 16 17 18 19 20 21 22 23 24 25 26 27 28 29 30 31 32 33 34 35 36 37 38 39 40 41 42 43 44 45 46 47 48 49 50

000
ASUS43 KFSD 010810
RWRSD

WEATHER ROUNDUP FOR SOUTH DAKOTA
NATIONAL WEATHER SERVICE SIOUX FALLS SD
300 AM CDT SAT OCT 01 2016

NOTE: "FAIR" INDICATES FEW OR NO CLOUDS BELOW 12,000 FEET WITH NO
SIGNIFICANT WEATHER AND/OR OBSTRUCTIONS TO VISIBILITY.


SDZ001>005-009-010-012>017-010900-
NORTHWEST AND NORTH CENTRAL SOUTH DAKOTA

CITY           SKY/WX    TMP DP  RH WIND       PRES   REMARKS
BUFFALO          N/A     56  47  71 CALM      29.95S
FAITH            N/A     55  47  74 SE16      30.00F
MOBRIDGE       CLOUDY    60  44  55 SE13      30.04S
$$

SDZ012>016-024>037-041>051-057-063-072>074-010900-
SOUTHWEST AND SOUTH CENTRAL SOUTH DAKOTA

CITY           SKY/WX    TMP DP  RH WIND       PRES   REMARKS
RAPID CTY ARPT CLEAR     51  47  86 SE6       30.03S
PIERRE         CLOUDY    60  44  55 SE16      30.06S
CUSTER         PTCLDY    50  43  77 NW5       30.15S
ELLSWORTH AFB  CLEAR     55  49  81 SW5       30.01S
PHILIP         CLOUDY    59  49  69 SE8       30.02S
PINE RIDGE     PTCLDY    61  48  62 S15       30.06F
WINNER         FAIR      59  44  57 S17       30.11R
$$

SDZ004>011-016>023-039-040-010900-
NORTHEAST SOUTH DAKOTA

CITY           SKY/WX    TMP DP  RH WIND       PRES   REMARKS
ABERDEEN       PTCLDY    55  45  68 SE8       30.13S
WATERTOWN      PTCLDY    53  48  83 SE5       30.17F
BROOKINGS      PTCLDY    48  46  93 CALM      30.17F
SISSETON         N/A     45  42  89 SE3       30.16F
$$

SDZ017-020-022-023-036>040-048>070-010900-
SOUTHEAST SOUTH DAKOTA

CITY           SKY/WX    TMP DP  RH WIND       PRES   REMARKS
SIOUX FALLS    CLOUDY    48  46  93 NE5       30.17F
HURON          CLOUDY    50  45  83 S6        30.14S
CHAMBERLAIN    MOCLDY    54  48  82 SE6       30.12S
MITCHELL       PTCLDY    49  44  83 S5        30.15F
YANKTON        MOCLDY    50  46  87 NE3       30.14F
$$

ABBREVIATIONS USED IN REMARKS
   TC - TEMPERATURE IN CELSIUS
  WCI - WIND CHILL INDEX
   HX - HEAT INDEX
  VSB - VISIBILITY





USA.gov is the U.S. government's official web portal to all federal, state and local government web resources and services.